Regional Weather Roundup
Issued by NWS Upton, NY

Current Version | Previous Version | Text Only | Print | Product List | Glossary On
Versions: 1 2 3 4 5 6 7 8 9 10 11 12 13 14 15 16 17 18 19 20 21 22 23 24 25 26 27 28 29 30 31 32 33 34 35 36 37 38 39 40 41 42 43 44 45 46 47 48 49 50
000
ASUS41 KOKX 292305
RWROKX

REGIONAL WEATHER ROUNDUP
NATIONAL WEATHER SERVICE NEW YORK NY
700 PM EDT THU SEP 29 2016

NOTE: "FAIR" INDICATES FEW OR NO CLOUDS BELOW 12,000 FEET WITH NO
SIGNIFICANT WEATHER AND/OR OBSTRUCTIONS TO VISIBILITY.

NYZ071-072-176-178-NJZ106-104-300000-
NEW YORK CITY METRO AREA

CITY           SKY/WX    TMP DP  RH WIND       PRES   REMARKS
Central Park   CLOUDY    63  52  67 E10G18    30.37S
LaGuardia APRT CLOUDY    64  53  67 E17       30.34S
Kennedy INTL   CLOUDY    62  50  64 E16       30.35S
Newark/Liberty LGT RAIN  63  53  70 E13       30.34S
Bronx Bot Gard   N/A     63  52  67 SE3       30.35S
Wall St Helipt CLOUDY    64  55  72 NE17      30.35R
Teterboro      LGT RAIN  64  54  69 E12       30.33S
$$

NYZ177-179-078>081-300000-
LONG ISLAND NEW YORK

CITY           SKY/WX    TMP DP  RH WIND       PRES   REMARKS
Farmingdale    CLOUDY    61  51  70 E16G23    30.36R
MacArthur/ISP  CLOUDY    60  51  72 NE14G22   30.36R
Shirley        CLOUDY    60  52  74 VRB6      30.37S
Riverhead      NOT AVBL
Westhampton    CLOUDY    59  51  75 NE14G24   30.38S
Southampton    NOT AVBL
Bridgehampton  NOT AVBL
East Hampton   CLOUDY    59  51  75 E15G21    30.39R
Montauk          N/A     60  52  74 NE15G24   30.41R
$$

NYZ052-065-067-300000-
HUDSON VALLEY

CITY           SKY/WX    TMP DP  RH WIND       PRES   REMARKS
White Plains   CLOUDY    62  49  62 NE7       30.35S
Newburgh       MOCLDY    61  50  67 E14       30.39S
Montgomery     CLOUDY    61  48  62 NE9       30.37F
Poughkeepsie   CLOUDY    60  45  57 E10       30.38S
Albany         CLOUDY    62  46  55 CALM      30.42R
$$

NJZ001-105-106-008-010-013-015-019>022-104-300000-
NEW JERSEY

CITY           SKY/WX    TMP DP  RH WIND       PRES   REMARKS
Newark/Liberty LGT RAIN  63  53  70 E13       30.34S
Teterboro      LGT RAIN  64  54  69 E12       30.33S
Caldwell       LGT RAIN  63  54  72 E9G17     30.34S
Morristown     LGT RAIN  61  55  82 E7G17     30.34S
Somerville     LGT RAIN  60  54  80 E3        30.32R
Linden         NOT AVBL
Sussex         CLOUDY    61  50  67 NE10      30.35R
Abdover          N/A     59  53  80 CALM      30.34S
Trenton        LGT RAIN  59  56  89 E13       30.31R
Millville      RAIN      63  63 100 E14       30.24S
Atlantic City  LGT RAIN  63  60  90 NE21G30   30.25S FOG
Wrightstown    LGT RAIN  61  59  94 NE13G22   30.27R
Toms River     LGT RAIN  61  59  93 E15G29    30.31R
Belmar         LGT RAIN  62  57  83 E21G32    30.32S
$$

PAZ047>061-062-071-300000-
EASTERN PENNSYLVANIA

CITY           SKY/WX    TMP DP  RH WIND       PRES   REMARKS
Philadelphia   RAIN      62  59  90 E18G28    30.28R
Allentown      LGT RAIN  60  54  80 E9        30.30S
Scranton       CLOUDY    60  50  69 VRB6      30.32R
$$

CTZ002-004>006-009-010-012-RIZ004-006-007-MAZ004-011-015-300000-
SOUTHERN NEW ENGLAND
 IN CT

CITY           SKY/WX    TMP DP  RH WIND       PRES   REMARKS
Bradley INTL   MOCLDY    59  45  59 NE9G22    30.43R
Hartford       MOCLDY    59  47  64 E10G16    30.42R
Danbury        MOCLDY    58  48  69 NE8       30.39F
Wtrbury/Oxford MOCLDY    57  45  62 E9        30.40S
Bridgeport     PTCLDY    64  49  57 NE17      30.38S
Meriden        CLOUDY    61  46  57 NE10      30.41R
New Haven      MOCLDY    60  48  64 NE13      30.39S
Chester        FAIR      57  48  72 NE12G20   30.41R
Groton         MOCLDY    59  49  69 NE14      30.41R
Wilimantic     CLOUDY    57  48  72 NE12      30.43F

 IN RI

CITY           SKY/WX    TMP DP  RH WIND       PRES   REMARKS
Providence     CLOUDY    57  48  72 NE14      30.45F
Block Island   CLOUDY    59  53  80 NE17G26   30.41R
Westerly       CLOUDY    58  48  69 NE10      30.42S
 IN MA

CITY           SKY/WX    TMP DP  RH WIND       PRES   REMARKS
Boston         CLOUDY    56  49  77 NE13      30.49F
Worcester      CLOUDY    52  45  77 NE12G20   30.47R
Westfield      CLOUDY    59  46  62 NE9       30.44S
Provincetown   CLOUDY    57  51  80 NE17G23   30.47S
Nantucket      CLOUDY    59  52  77 NE21G28   30.41S
$$

ANZ330-335-338-340-345-350-353-355-300000-
COASTAL MARINE OBSERVATIONS


STATION/POSITION TIME  SKY/WX   TEMP    WIND        PRES    VSBY  WAVE
                                AIR SEA DIR/SP/G                  HT/PER
                 (UTC)          (F)     (DEG/KT/KT) (MB)    (MI)  (FT/S)
NY HARB ENTRANCE 2150            64 70   70/ 27/ 35 1025.8         10/ 8
20S FIRE ISLAND  2150            63 67   70/ 27/ 33 1025.4         12/ 8
GREAT SOUTH BAY  2230            62 66   70/ 19/ 25   N/A
23 SSW MONTAUK P 2150            62 65   60/ 27/ 31 1027.7          9/ 8
15 E BARNEGAT LI 2200               70                N/A          12/ 9
HUDSON CANYON    2150            66 69              1023.6         12/ 8
KINGS POINT      2230            62 70              1027.3
EXECUTION ROCKS  2245            65      80/ 17/ 25   N/A
CENTRAL LI SOUND NOT AVBL
EASTERN LI SOUND NOT AVBL
ROBBINS REEF     2230            63      80/ 13/ 17 1027.3
$$


>>>>>>>>>>>>>>>>>>>>>>>>>>>> KEY <<<<<<<<<<<<<<<<<<<<<<<<<<<
>                                                          <
>     SKY/WX - Sky Condition/Present Weather               <
>     TMP    - Temperature in Fahrenheit                   <
>     DP     - Dew Point in Fahrenheit                     <
>     RH     - Relative Humidity in Percent                <
>     WIND   - Direction (from) and Speed in MPH           <
>     PRES   - Mean Sea Level Pressure (inches of Hg)      <
>     WCI    - Wind Chill Index                            <
>     VSB    - VISIBILITY IN MILES                         <
>     HX     - HEAT INDEX                                  <
>     TC     - TEMPERATURE IN CELSIUS                      <
>     VRB    - VARIABLE WIND DIRECTION                     <
>                                                          <
>>>>>>>>>>>>>>>>>>>>>>>>>>>> KEY <<<<<<<<<<<<<<<<<<<<<<<<<<<




USA.gov is the U.S. government's official web portal to all federal, state and local government web resources and services.